This is the latest recevied weather packets stored in our database for station/object KE5QKR. If no packets are shown the sender has not sent any weather packets the latest 10 day(s).
| Time | Temp. | Humidity | Pressure | Rain* | Wind** | Luminosity | Snow |
|---|---|---|---|---|---|---|---|
| 1777723287 | 11.67° C | 99% | 1013.4 hPa | 0 mm | - | 34 W/m² | - |
| 1777722984 | 11.11° C | 99% | 1013.3 hPa | 0 mm | - | 24 W/m² | - |
| 1777722680 | 11.11° C | 99% | 1013.4 hPa | 0 mm | - | 19 W/m² | - |
| 1777722376 | 11.11° C | 99% | 1013.4 hPa | 0 mm | - | 14 W/m² | - |
| 1777722074 | 11.11° C | 99% | 1013.2 hPa | 0 mm | - | 12 W/m² | - |
| 1777721771 | 11.11° C | 99% | 1012.9 hPa | 0 mm | - | 9 W/m² | - |
| 1777721470 | 11.11° C | 99% | 1013.1 hPa | 0 mm | - | 6 W/m² | - |
| 1777721167 | 11.11° C | 99% | 1013 hPa | 0 mm | - | 4 W/m² | - |
| 1777720864 | 11.11° C | 99% | 1013.3 hPa | 0 mm | - | 3 W/m² | - |
| 1777720562 | 11.11° C | 99% | 1013.2 hPa | 0 mm | - | 2 W/m² | - |
| 1777720259 | 11.11° C | 99% | 1012.9 hPa | 0 mm | - | 1 W/m² | - |
| 1777719956 | 11.67° C | 99% | 1012.8 hPa | 0 mm | - | 0 W/m² | - |
| 1777719654 | 11.67° C | 99% | 1012.7 hPa | 0 mm | - | 0 W/m² | - |
| 1777719351 | 11.67° C | 99% | 1012.6 hPa | 0 mm | - | 0 W/m² | - |
| 1777719048 | 11.67° C | 99% | 1012.6 hPa | 0 mm | - | 0 W/m² | - |
| 1777718745 | 11.67° C | 99% | 1012.5 hPa | 0 mm | - | 0 W/m² | - |
| 1777718443 | 11.67° C | 99% | 1012.5 hPa | 0 mm | - | 0 W/m² | - |
| 1777718140 | 11.67° C | 99% | 1012.3 hPa | 0 mm | - | 0 W/m² | - |
| 1777717838 | 11.67° C | 99% | 1012 hPa | 0 mm | - | 0 W/m² | - |
| 1777717534 | 11.67° C | 99% | 1012 hPa | 0 mm | - | 0 W/m² | - |
| 1777717232 | 11.67° C | 99% | 1012 hPa | 0 mm | - | 0 W/m² | - |
| 1777716929 | 11.67° C | 99% | 1011.9 hPa | 0 mm | - | 0 W/m² | - |
| 1777716628 | 11.67° C | 99% | 1011.8 hPa | 0 mm | - | 0 W/m² | - |
| 1777716326 | 11.67° C | 99% | 1011.7 hPa | 0 mm | - | 0 W/m² | - |
| 1777716024 | 11.67° C | 99% | 1012.1 hPa | 0 mm | - | 0 W/m² | - |
* Rain latest hour (hover to see other rain measurements)
** Current wind speed in m/s (hover to see current wind gust speed)